www.pogodaiklimat.ru

Погода и климат >> Архив погоды >> Россия >> Калининградская область >> Пионерский


ПОГОДА в Пионерском

  • Прогноз погоды в Пионерском
  • Монитор погоды в Пионерском

АРХИВ ПОГОДЫ в Пионерском

Время (UTC), дата Ветер
(напр.,м/с)
 
Видим.   Явления Облачность Т
(С)
Тd
(С)
f
(%)
Тe
(С)
Тes
(С)
Комфортность P
(гПа)
Po
(гПа)
Тmin
(С)
Tmax
(С)
R
(мм)
R24
(мм)
S
(см)
00 10.09 В 2-4
{5}
10 км 6/4 600 м
[Sc Ci fib]
+16.1 +9.7 66 +16 +16 1010.5 1005.9
03 10.09 В 2-5
{6}
10 км 4/3 600 м
[Sc Ci fib]
+14.6 +9.2 70 +14 +14 1008.9 1004.3 +14.5
06 10.09 ЮВ 3-7
{8}
10 км 6/3 600 м
[Sc Ci fib]
+17.0 +12.9 77 +17 +18 1009.9 1005.3 +14.3
09 10.09 ЮВ 5-11
{12}
10 км 9/9 600 м
[Sc]
+16.4 +10.2 67 +16 +16 1011.1 1006.5
12 10.09 ЮВ 5-11
{13}
10 км в посл. час ливневой дождь 10/10 600 м
[Cb calv]
+16.6 +11.6 72 +16 +16 1011.4 1006.8
15 10.09 Ю 5-10
{13}
10 км слаб. ливневой дождь 10/10 300 м
[Cb calv]
+14.2 +12.6 90 +12 +12 1012.8 1008.1 0.8
18 10.09 Ю 4-9
{11}
10 км слаб. ливневой дождь 10/10 300 м
[Cb calv]
+13.4 +12.1 92 +12 +12 1015.1 1010.4 +17.7 4
21 10.09 Ю 3-7
{11}
10 км {ливн. осадки} 9/9 600 м
[Sc]
+14.5 +10.7 78 +14 +14 1016.2 1011.5
00 11.09 Ю 3-7
{8}
10 км {ливн. осадки} 9/9 600 м
[Sc]
+14.1 +9.0 71 +13 +13 1017.1 1012.4
03 11.09 ЮЗ 4-7
{9}
10 км 4/3 600 м
[Sc Ci fib]
+13.8 +9.4 75 +12 +12 1017.9 1013.2 +13.1 5
06 11.09 ЮЗ 4-8
{8}
10 км 3/3 600 м
[Sc]
+14.3 +10.5 78 +13 +14 1019.6 1014.9 +12.8 1
09 11.09 ЮЗ 5-11
{11}
10 км 8/8 600 м
[Sc]
+17.2 +11.7 70 +17 +17 1021.7 1017.0
12 11.09 ЮЗ 5-9
{11}
10 км 3/0
[Ac trans]
+19.6 +10.7 56 +21 +24 комфорт 1022.3 1017.7
15 11.09 ЮЗ 4-7
{10}
10 км ясно +19.8 +8.6 48 +21 +22 комфорт 1022.2 1017.6
18 11.09 Ю 1-2
{6}
10 км 3/0
[Ci fib]
+15.1 +9.7 70 +16 +16 1022.7 1017.9 +20.4
21 11.09 ЮЗ 1-2
{3}
10 км 3/3 600 м
[Sc]
+12.2 +8.9 80 +12 +12 1022.5 1017.8
00 12.09 ЮЗ 1-3
{3}
10 км 4/0
[Ci fib]
+11.4 +8.9 85 +11 +11 1021.9 1017.1
03 12.09 Ю 1-3
{4}
10 км 6/3 600 м
[Sc Ci fib]
+12.0 +9.4 84 +12 +12 1020.9 1016.2 +11.2
06 12.09 ЮЗ 2-5
{5}
10 км 8/8 600 м
[Sc]
+14.8 +11.7 82 +14 +15 1021.2 1016.5 +11.2
09 12.09 ЮЗ 3-6
{9}
4000 м слаб. ливневой дождь 10/10 300 м
[Cb calv]
+16.3 +13.5 83 +16 +16 1022.8 1018.1
12 12.09 ЮЗ 4-9
{9}
10 км {ливн. осадки} 10/10 600 м
[Sc]
+18.6 +14.0 75 +19 +19 1024.1 1019.4
15 12.09 З 3-6
{9}
10 км 10/10 600 м
[Sc]
+17.5 +13.1 75 +18 +18 1024.6 1019.9 0.0
18 12.09 З 2-3
{8}
10 км 8/8 600 м
[Sc]
+15.4 +11.8 79 +15 +15 1024.9 1020.2 +19.3 0.0
21 12.09 ЮЗ 1-3
{4}
10 км 6/6 600 м
[Sc]
+14.0 +10.8 81 +14 +14 1024.6 1019.9
00 13.09 -3
{3}
10 км н/о +12.7 +10.6 87 +12 +12 1023.6 1018.9
03 13.09 ЮЗ 2-3
{4}
10 км 3/3 600 м
[Sc]
+13.0 +12.5 97 +12 +12 1022.3 1017.6 +12.3
06 13.09 ЮЗ 4-8
{8}
10 км 9/8 600 м
[Sc Ci fib]
+16.1 +13.6 85 +15 +15 1021.1 1016.4 +12.3
09 13.09 ЮЗ 5-9
{9}
10 км {ливн. осадки} 10/10 600 м
[Sc]
+17.5 +13.4 77 +17 +17 1019.5 1014.8
12 13.09 З 6-11
{12}
10 км {ливн. осадки} 10/10 600 м
[Sc]
+17.5 +15.3 87 +17 +17 1018.7 1014.1
15 13.09 З 5-10
{13}
10 км {ливн. осадки} 8/8 600 м
[Sc]
+16.9 +10.5 66 +16 +16 1021.8 1017.1 2
18 13.09 З 5-10
{13}
10 км {ливн. осадки} 8/4 600 м
[Sc Ci fib]
+15.7 +10.8 73 +15 +15 1023.5 1018.8 +18.4 2
21 13.09 З 6-12
{12}
10 км 4/4 600 м
[Sc]
+15.6 +9.5 67 +14 +14 1024.5 1019.7
00 14.09 З 5-11
{12}
10 км 4/4 600 м
[Sc]
+14.9 +7.7 62 +14 +14 1025.5 1020.7
03 14.09 З 3-6
{11}
10 км 6/6 600 м
[Sc]
+13.8 +7.9 68 +13 +13 1025.9 1021.2 +13.8
06 14.09 З 4-8
{9}
10 км 8/8 600 м
[Sc]
+15.4 +8.5 63 +14 +15 1026.8 1022.1 +13.7 0.0
09 14.09 З 6-12
{13}
10 км {ливн. осадки} 9/9 600 м
[Sc]
+16.1 +8.4 60 +15 +15 1028.1 1023.4
12 14.09 З 5-11
{12}
10 км {ливн. осадки} 8/8 600 м
[Sc]
+17.0 +7.8 55 +16 +17 1028.0 1023.3
15 14.09 З 5-10
{11}
10 км 9/6 600 м
[Sc Ci fib]
+15.4 +8.4 63 +14 +15 1027.2 1022.5 0.0
18 14.09 З 5-10
{10}
10 км 9/9 600 м
[Sc]
+14.7 +8.9 68 +13 +13 1026.2 1021.5 +17.7 0.0
21 14.09 З 4-10
{10}
10 км в посл. час ливневой дождь 6/6 600 м
[Sc]
+14.6 +9.6 72 +13 +13 1025.2 1020.5
00 15.09 ЮЗ 4-6
{10}
10 км {ливн. осадки} 6/4 600 м
[Sc Ci fib]
+13.6 +10.9 84 +12 +12 1023.2 1018.5
03 15.09 ЮЗ 3-6
{7}
10 км 4/0
[Ci fib]
+13.0 +9.3 78 +12 +12 1021.4 1016.7 +12.8 4
06 15.09 ЮЗ 5-11
{11}
10 км 9/9 600 м
[Sc]
+13.5 +8.9 74 +12 +12 1017.9 1013.2 +12.8 4
09 15.09 ЮЗ 7-12
{15}
10 км 9/9 600 м
[Sc]
+14.6 +7.8 64 +13 +13 1014.4 1009.7
12 15.09 ЮЗ 8-14
{17}
10 км 9/9 600 м
[Sc diur, vesp]
+18.1 +8.3 53 +17 +17 1010.8 1006.2
15 15.09 З 6-10
{14}
10 км в посл. час переохл. осадки (гололёд) 10/10 600 м
[Cb calv]
+14.1 +11.2 83 +12 +12 1009.9 1005.3 1
18 15.09 З 7-12
{14}
10 км {ливн. осадки} 10/10 600 м
[Sc]
+15.6 +12.7 83 +14 +14 1008.5 1003.9 +18.3 1
21 15.09 З 7-12
{15}
10 км {ливн. осадки} 9/9 600 м
[Sc]
+15.4 +8.8 65 +14 +14 1007.6 1003.0
00 16.09 З 8-15
{16}
10 км {ливн. осадки} 6/6 600 м
[Sc]
+14.3 +6.9 61 +12 +12 1007.6 1003.0
03 16.09 З 8-15
{17}
10 км слаб. ливневой дождь 10/10 300 м
[Cb calv]
+14.1 +8.5 69 +12 +12 1007.7 1003.1 +13.8 0.0
06 16.09 З 6-13
{15}
10 км в посл. час ливневой дождь 9/9 600 м
[Sc]
+14.3 +8.5 68 +12 +12 1007.6 1003.0 +12.4 0.5
09 16.09 З 8-15
{17}
10 км 8/8 600 м
[Sc]
+15.7 +7.6 59 +14 +14 1008.7 1004.1
12 16.09 З 8-15
{17}
10 км 8/8 600 м
[Sc]
+15.4 +7.7 60 +14 +14 1009.2 1004.6
15 16.09 З 8-15
{18}
10 км слаб. ливневой дождь 10/10 300 м
[Cb calv]
+13.3 +8.3 72 +11 +11 1008.8 1004.1 2
18 16.09 З 5-10
{17}
10 км {ливн. осадки} 8/8 300 м
[Cb calv]
+13.6 +7.2 65 +12 +12 1008.2 1003.6 +16.5 2
21 16.09 З 4-9
{12}
10 км 6/6 600 м
[Sc diur, vesp]
+13.5 +7.2 66 +12 +12 1007.8 1003.2

 

Местоположение метеостанции Пионерский (Калининградская область, Россия): широта 54.95 долгота 20.21 высота над уровнем моря 28 м.

В архиве по умолчанию представлена погода в Пионерском за последнюю неделю. Архивные данные за месяц целиком и за предыдущие месяцы, начиная с января 2011 года, Вы можете получить, выбрав интересующий диапазон дат из раскрывающегося списка и нажав кнопку "Ввод!".


*Определитесь, кто Вы:
робот инопланетянин человек

Внимание! Время в таблицах - всемирное. Для получения местного времени необходимо прибавить поправку, которая равна 2 ч.

Смотрите также архив погоды в соседних городах и на ближайших метеорологических станциях:

Погода в Рыбном Порту (Калининградская область, Россия) (32 км)
Погода в Калининграде (Калининградская область, Россия) (38 км)
Погода в Балтийске (Калининградская область, Россия) (40 км)
Погода в Рыбачем (Калининградская область, Россия) (46 км)
Погода в Мамоново (Калининградская область, Россия) (56 км)
Погода в Ниде (Литва) (66 км)
Погода в Шилуте (Литва) (91 км)
Погода в Железнодорожном (Калининградская область, Россия) (95 км)
Погода в Хеле (Польша) (97 км)
Погода в Эльблонге (Польша) (100 км)

Пояснения к столбцам:

Ветер - указаны скорость ветра в м/с - средняя за 10 мин, порывы в срок и между сроками (в фигурных скобках) и направление, откуда дует ветер: С - северный, СВ - северо-восточный, В - восточный, ЮВ - юго-восточный, Ю - южный, ЮЗ - юго-западный, З - западный, СЗ - северо-западный.
Видимость - горизонтальная дальность видимости в метрах или километрах. При видимости от 1 до 10 км при отсутствии осадков обычно наблюдается дымка, при ухудшении видимости до 1 км и менее - туман. В сухую погоду видимость может ухудшаться дымом, пылью или мглою.
Явления - указаны атмосферные явления, наблюдавшиеся в срок или в последний час перед сроком; фигурными скобками обозначены явления, наблюдавшиеся между сроками (за 1-3 часа до срока); квадратными скобками обозначены град или гололедные отложения с указанием их диаметра в мм.
Облачность - указаны через наклонную черту общая и нижняя облачность в баллах и высота нижней границы облаков в метрах; квадратными скобками обозначены формы облаков: Ci - перистые, Cs - перисто-слоистые, Cc - перисто-кучевые, Ac - высококучевые, As - высокослоистые, Sc - слоисто-кучевые, Ns - слоисто-дождевые, Cu - кучевые, Cb - кучево-дождевые. Подробнее классификацию облаков см. в Атласе облаков (PDF).
T - Температура воздуха - температура, измеренная на высоте 2 м над землей.
Td - Температура точки росы - температура, при понижении до которой содержащийся в воздухе водяной пар достигнет насыщения.
f - Относительная влажность воздуха - влажноcть воздуха, измеренная на высоте 2 м над землей.
Te - Эффективная температура - температура, которую ощущает одетый по сезону человек в тени. Характеристика душности погоды. При расчете учитывается влияние влажности воздуха и скорости ветра на теплоощущения человека.
Tes - Эффективная температура на солнце - температура, которую ощущает человек, с поправкой на солнечный нагрев. Характеристика знойности погоды. Зависит от высоты солнца над горизонтом, облачности и скорости ветра. Ночью, в пасмурную погоду, а также при ветре 12 м/с и более поправка равна нулю.
P - Атмосферное давление - приведенное к уровню моря атмосферное давление.
Po - Атмосферное давление - измеренное на уровне метеостанции атмосферное давление.
Tmin - Минимальная температура - минимум температуры воздуха на высоте 2 м над землей.
Tmax - Максимальная температура - максимум температуры воздуха на высоте 2 м над землей.
R - Количество осадков - Количество выпавших осадков за период времени, мм. При наведении курсора мыши на число - период времени, за который выпало указанное количество осадков.
R24 - Количество осадков - Количество выпавших осадков за 24 часа, мм.
S - Снежный покров - Высота снежного покрова, см. При наведении курсора мыши на число - состояние снежного покрова и степень покрытия местности в баллах.